Location: Unspecified
(0.0000°N, 0.0000°E)
Time: 01:05:24
(UTC+00:00)

QIANFAN-31 - Pass Details

Date: 06 March 2026
Orbit: 1037 x 1049 km, 89.0° (Epoch: 14 April)

Event Time Altitude Azimuth Distance (km) Brightness Sun altitude
Rises 04:43:03 0° 30° (NNE) 3,779 ? -22.0°
Reaches altitude 10° 04:46:14 10° 45° (NE) 2,830 ? -21.2°
Maximum altitude 04:50:59 22° 93° (E) 2,099 ? -20.0°
Drops below altitude 10° 04:55:45 10° 141° (SE) 2,840 ? -18.8°
Sets 04:58:55 0° 156° (SSE) 3,797 ? -18.0°
